Change the Weather History Date:

Tuesday, January 15, 2013

  Actual Average (KTDF) Record (KTDF)
Temperature  
Mean Temperature 44 °F -  
Max Temperature 47 °F 46 °F 73 °F (1960)
Min Temperature 41 °F 25 °F 8 °F (1988)
Degree Days  
Heating Degree Days 21    
Moisture  
Dew Point 41 °F    
Average Humidity 95    
Maximum Humidity 97    
Minimum Humidity 93    
Precipitation  
Precipitation 0.10 in - - ()
Sea Level Pressure  
Sea Level Pressure 30.19 in    
Wind  
Wind Speed 10 mph (NE)    
Max Wind Speed 16 mph    
Max Gust Speed 22 mph    
Visibility 4 miles    
Events Rain    
Averages and records for this station are not official NWS values.
T = Trace of Precipitation, MM = Missing Value Source: NWS Daily Summary

Daily Weather History Graph

Daily Weather History Graph

Search for Another Location

Airport or City:

Trip Planner

Search our weather history database for the weather conditions in past years. The results will help you decide how hot, cold, wet, or windy it might be!

Date:

Astronomy

Jan. 15, 2013 Rise Set
Actual Time 7:24 AM EST 5:22 PM EST
Civil Twilight 6:56 AM EST 5:50 PM EST
Nautical Twilight 6:25 AM EST 6:22 PM EST
Astronomical Twilight 5:54 AM EST 6:53 PM EST
Moon 9:38 AM EST (1/15) 10:00 PM EST (1/15)
Length of Visible Light 10h 54m
Length of Day
9h 58m
Waxing Crescent, 19% of the Moon is Illuminated
Jan 15
Waxing Crescent
Jan 18
First Quarter
Jan 26
Full
Feb 3
Last Quarter
Feb 10
New

Hourly Weather History & Observations

Time (EST) Temp. Windchill Dew Point Humidity Pressure Visibility Wind Dir Wind Speed Gust Speed Precip Events Conditions
12:15 AM 47.3 °F - 45.7 °F 94% 30.19 in 10.0 mi NE 16.1 mph 21.9 mph N/A   Overcast
12:35 AM 46.6 °F - 45.0 °F 94% 30.20 in 10.0 mi NNE 15.0 mph 20.7 mph N/A   Light Drizzle
12:55 AM 46.2 °F 39.8 °F 44.4 °F 93% 30.22 in 10.0 mi NNE 15.0 mph 20.7 mph N/A   Overcast
1:15 AM 45.9 °F 40.0 °F 44.1 °F 93% 30.22 in 5.0 mi NNE 12.7 mph 21.9 mph N/A   Overcast
1:35 AM 45.5 °F 42.5 °F 43.9 °F 94% 30.22 in 4.0 mi NNE 5.8 mph - N/A   Light Drizzle
1:55 AM 44.8 °F 38.7 °F 43.2 °F 94% 30.22 in 4.0 mi NNE 12.7 mph 17.3 mph 0.01 in Rain Rain
2:15 AM 44.1 °F 37.4 °F 42.6 °F 95% 30.22 in 4.0 mi NNE 13.8 mph 19.6 mph N/A   Light Drizzle
2:35 AM 43.9 °F 38.8 °F 42.3 °F 94% 30.23 in 5.0 mi NNE 9.2 mph 18.4 mph N/A   Light Drizzle
2:55 AM 43.7 °F 37.7 °F 42.1 °F 94% 30.22 in 4.0 mi NNE 11.5 mph 19.6 mph 0.01 in Rain Light Rain
3:15 AM 43.2 °F 37.9 °F 41.5 °F 94% 30.22 in 5.0 mi NNE 9.2 mph 18.4 mph N/A Rain Light Rain
3:35 AM 42.8 °F 36.6 °F 41.2 °F 94% 30.22 in 7.0 mi NE 11.5 mph 18.4 mph N/A   Overcast
4:15 AM 42.3 °F 37.3 °F 40.5 °F 93% 30.22 in 10.0 mi NE 8.1 mph - N/A   Overcast
4:35 AM 42.3 °F 37.3 °F 40.6 °F 94% 30.20 in 4.0 mi ENE 8.1 mph - 0.01 in Rain Rain
4:55 AM 42.3 °F 36.8 °F 40.6 °F 94% 30.18 in 3.0 mi ENE 9.2 mph - 0.02 in Rain Rain
5:15 AM 42.3 °F 36.3 °F 41.0 °F 95% 30.18 in 3.0 mi ENE 10.4 mph 16.1 mph N/A Rain Rain
5:35 AM 42.3 °F 35.1 °F 41.0 °F 95% 30.17 in 3.0 mi ENE 13.8 mph - N/A Rain Light Rain
5:55 AM 42.4 °F 36.5 °F 41.0 °F 95% 30.18 in 5.0 mi East 10.4 mph - N/A   Unknown
6:15 AM 42.4 °F 37.0 °F 41.0 °F 95% 30.18 in 3.0 mi East 9.2 mph - 0.01 in   Drizzle
6:35 AM 42.8 °F 37.5 °F 41.2 °F 94% 30.17 in 3.0 mi East 9.2 mph - 0.01 in   Drizzle
6:55 AM 43.0 °F 38.2 °F 41.5 °F 95% 30.18 in 5.0 mi ENE 8.1 mph - 0.02 in   Light Drizzle
7:15 AM 43.3 °F 37.7 °F 42.1 °F 95% 30.19 in 7.0 mi ENE 10.4 mph - N/A   Overcast
7:35 AM 43.7 °F 38.6 °F 42.1 °F 94% 30.19 in 10.0 mi ENE 9.2 mph - N/A   Overcast
7:55 AM 43.7 °F 39.1 °F 42.3 °F 95% 30.21 in 4.0 mi ENE 8.1 mph - N/A   Overcast
8:15 AM 43.7 °F 39.7 °F 42.3 °F 95% 30.22 in 3.0 mi ENE 6.9 mph - N/A   Drizzle
8:35 AM 43.7 °F 40.3 °F 42.3 °F 95% 30.23 in 1.8 mi NE 5.8 mph - N/A   Drizzle
8:55 AM 43.7 °F 39.7 °F 42.3 °F 95% 30.24 in 3.0 mi NNE 6.9 mph - 0.01 in   Drizzle
9:15 AM 43.9 °F 42.3 °F 42.8 °F 96% 30.25 in 3.0 mi NNE 3.5 mph - 0.01 in   Drizzle
9:35 AM 43.9 °F 38.3 °F 42.8 °F 96% 30.26 in 4.0 mi North 10.4 mph - 0.01 in   Heavy Drizzle
9:55 AM 43.5 °F 38.3 °F 42.1 °F 95% 30.26 in 7.0 mi North 9.2 mph - 0.02 in   Drizzle
10:15 AM 43.2 °F 38.4 °F 41.9 °F 95% 30.26 in 7.0 mi North 8.1 mph - N/A   Light Drizzle
10:35 AM 43.0 °F 38.2 °F 41.7 °F 95% 30.25 in 10.0 mi NNE 8.1 mph - N/A   Overcast
10:55 AM 42.1 °F 37.1 °F 40.8 °F 95% 30.25 in 10.0 mi NE 8.1 mph - N/A   Overcast
11:15 AM 42.1 °F 37.7 °F 40.6 °F 95% 30.24 in 10.0 mi NNE 6.9 mph - N/A   Overcast
11:35 AM 41.9 °F 38.2 °F 40.3 °F 94% 30.24 in 10.0 mi NNE 5.8 mph 16.1 mph N/A   Overcast
11:55 AM 41.9 °F 35.9 °F 40.1 °F 93% 30.23 in 10.0 mi NE 10.4 mph - N/A   Overcast
12:15 PM 41.7 °F 36.7 °F 40.1 °F 94% 30.22 in 10.0 mi NNE 8.1 mph - N/A   Overcast
12:35 PM 41.2 °F 35.5 °F 39.6 °F 94% 30.22 in 10.0 mi NNE 9.2 mph - N/A   Overcast
12:55 PM 41.2 °F 36.6 °F 39.7 °F 95% 30.22 in 10.0 mi NNE 6.9 mph - N/A   Overcast
1:15 PM 41.2 °F 36.0 °F 39.7 °F 95% 30.19 in 10.0 mi NE 8.1 mph - N/A   Overcast
1:35 PM 41.2 °F 36.6 °F 39.7 °F 95% 30.20 in 5.0 mi NNE 6.9 mph - N/A   Overcast
1:55 PM 41.0 °F 35.8 °F 39.6 °F 95% 30.20 in 3.0 mi NE 8.1 mph - N/A   Overcast
2:15 PM 41.0 °F 36.4 °F 39.7 °F 95% 30.19 in 2.5 mi NE 6.9 mph - N/A   Overcast
2:35 PM 41.0 °F 35.8 °F 39.7 °F 95% 30.19 in 2.5 mi NE 8.1 mph - N/A   Overcast
2:55 PM 41.0 °F 35.2 °F 39.7 °F 95% 30.19 in 2.5 mi NE 9.2 mph - N/A   Overcast
3:15 PM 41.0 °F 34.7 °F 39.7 °F 95% 30.19 in 2.5 mi ENE 10.4 mph - N/A   Overcast
3:35 PM 41.0 °F 35.2 °F 40.1 °F 97% 30.19 in 2.0 mi NE 9.2 mph - N/A   Overcast
3:55 PM 41.0 °F 35.8 °F 40.1 °F 97% 30.18 in 1.8 mi NE 8.1 mph - N/A   Overcast
4:35 PM 41.4 °F 37.6 °F 40.3 °F 96% 30.19 in 2.5 mi NE 5.8 mph - N/A   Overcast
4:55 PM 41.4 °F 37.6 °F 40.3 °F 96% 30.19 in 2.0 mi NE 5.8 mph - N/A   Overcast
5:15 PM 41.4 °F 37.6 °F 40.3 °F 96% 30.19 in 2.5 mi NE 5.8 mph - N/A   Overcast
5:35 PM 41.4 °F 36.8 °F 40.3 °F 96% 30.19 in 1.8 mi NE 6.9 mph - N/A   Overcast
5:55 PM 41.5 °F 37.8 °F 40.5 °F 96% 30.19 in 1.5 mi NE 5.8 mph - N/A   Overcast
6:15 PM 41.9 °F 36.3 °F 40.6 °F 95% 30.18 in 1.5 mi ENE 9.2 mph - N/A Rain Light Rain
6:35 PM 41.7 °F 38.0 °F 40.8 °F 97% 30.19 in 1.2 mi NE 5.8 mph - N/A Rain Light Rain
6:55 PM 41.9 °F 39.0 °F 41.0 °F 97% 30.19 in 1.2 mi NE 4.6 mph - N/A   Light Drizzle
7:15 PM 41.9 °F 38.2 °F 41.0 °F 97% 30.18 in 1.0 mi NE 5.8 mph - N/A Rain Light Rain
7:35 PM 41.9 °F 36.9 °F 41.0 °F 97% 30.17 in 1.0 mi ENE 8.1 mph - N/A   Overcast
7:55 PM 41.9 °F 36.9 °F 41.0 °F 97% 30.16 in 0.8 mi ENE 8.1 mph - N/A   Overcast
8:15 PM 42.1 °F 37.1 °F 41.0 °F 96% 30.16 in 1.0 mi ENE 8.1 mph - N/A   Overcast
8:35 PM 42.1 °F 38.4 °F 41.2 °F 97% 30.14 in 1.0 mi East 5.8 mph - N/A   Overcast
8:55 PM 42.1 °F 37.7 °F 41.2 °F 97% 30.13 in 1.0 mi East 6.9 mph - N/A   Overcast
9:15 PM 42.3 °F 39.4 °F 41.4 °F 97% 30.13 in 1.0 mi East 4.6 mph - N/A   Overcast
9:35 PM 42.4 °F 38.1 °F 41.5 °F 97% 30.12 in 1.0 mi East 6.9 mph - N/A   Overcast
9:55 PM 42.4 °F 40.7 °F 41.5 °F 97% 30.11 in 1.0 mi NE 3.5 mph - N/A   Overcast
10:15 PM 42.6 °F - 41.7 °F 97% 30.12 in 1.2 mi Calm Calm - N/A   Overcast
10:35 PM 42.8 °F - 41.9 °F 97% 30.10 in 1.2 mi Calm Calm - 0.01 in Rain Light Rain
10:55 PM 42.8 °F 41.1 °F 41.9 °F 97% 30.09 in 1.2 mi ENE 3.5 mph - 0.01 in   Overcast
11:15 PM 42.8 °F - 41.9 °F 97% 30.08 in 1.5 mi Calm Calm - N/A   Overcast
11:35 PM 43.0 °F - 42.1 °F 97% 30.08 in 1.8 mi Calm Calm - N/A   Overcast
11:55 PM 43.0 °F 40.3 °F 42.1 °F 97% 30.09 in 1.8 mi NW 4.6 mph - N/A   Overcast